Back to catalog

ATLAS 5 CENTAUR DEB

AliveHEO
NORAD 43968·DEBRIS·🇺🇸 United States

Launched Sep 17, 2014 from Cape Canaveral Space Force Station

Loading…

Next Passes (next 24 hours)

TLE

FreshSource: Space-Track

Epoch: Sep 13, 2026, 07:33 UTC

1 43968U 14055X   26256.31458618 -.00000121  00000-0  00000-0 0  9997
2 43968  20.4355 123.3518 5004275 199.8247 130.4372  1.83134649 53699

Track ATLAS 5 CENTAUR DEB in real time with AllMySat

Download on the App Store